Year,Month,Day,Hour,Minute,Value (Times are PST for barometer in hPa)
2015,12,10,00,00,996.65
2015,12,10,00,01,996.61
2015,12,10,00,02,996.58
2015,12,10,00,03,996.55
2015,12,10,00,04,996.48
2015,12,10,00,05,996.41
2015,12,10,00,06,996.34
2015,12,10,00,07,996.24
2015,12,10,00,08,996.17
2015,12,10,00,09,996.21
2015,12,10,00,10,996.17
2015,12,10,00,11,996.11
2015,12,10,00,12,996.07
2015,12,10,00,13,996.04
2015,12,10,00,14,996.07
2015,12,10,00,15,996.07
2015,12,10,00,16,996.11
2015,12,10,00,17,996.07
2015,12,10,00,18,996.01
2015,12,10,00,19,996.01
2015,12,10,00,20,995.94
2015,12,10,00,21,995.87
2015,12,10,00,22,995.80
2015,12,10,00,23,995.77
2015,12,10,00,24,995.63
2015,12,10,00,25,995.67
2015,12,10,00,26,995.56
2015,12,10,00,27,995.53
2015,12,10,00,28,995.46
2015,12,10,00,29,995.43
2015,12,10,00,30,995.36
2015,12,10,00,31,995.36
2015,12,10,00,32,995.29
2015,12,10,00,33,995.26
2015,12,10,00,34,995.19
2015,12,10,00,35,995.19
2015,12,10,00,36,995.19
2015,12,10,00,37,995.12
2015,12,10,00,38,995.12
2015,12,10,00,39,995.06
2015,12,10,00,40,995.02
2015,12,10,00,41,994.96
2015,12,10,00,42,994.92
2015,12,10,00,43,994.89
2015,12,10,00,44,994.85
2015,12,10,00,45,994.82
2015,12,10,00,46,994.72
2015,12,10,00,47,994.65
2015,12,10,00,48,994.62
2015,12,10,00,49,994.55
2015,12,10,00,50,994.55
2015,12,10,00,51,994.54
2015,12,10,00,52,994.41
2015,12,10,00,53,994.38
2015,12,10,00,54,994.35
2015,12,10,00,55,994.24
2015,12,10,00,56,994.18
2015,12,10,00,57,994.11
2015,12,10,00,58,993.97
2015,12,10,00,59,993.97
2015,12,10,01,00,993.94
2015,12,10,01,01,993.87
2015,12,10,01,02,993.77
2015,12,10,01,03,993.70
2015,12,10,01,04,993.63
2015,12,10,01,05,993.57
2015,12,10,01,06,993.50
2015,12,10,01,07,993.43
2015,12,10,01,08,993.40
2015,12,10,01,09,993.30
2015,12,10,01,10,993.23
2015,12,10,01,11,993.13
2015,12,10,01,12,993.13
2015,12,10,01,13,993.09
2015,12,10,01,14,992.99
2015,12,10,01,15,992.92
2015,12,10,01,16,992.86
2015,12,10,01,17,992.79
2015,12,10,01,18,992.72
2015,12,10,01,19,992.62
2015,12,10,01,20,992.55
2015,12,10,01,21,992.48
2015,12,10,01,22,992.48
2015,12,10,01,23,992.42
2015,12,10,01,24,992.35
2015,12,10,01,25,992.28
2015,12,10,01,26,992.21
2015,12,10,01,27,992.18
2015,12,10,01,28,992.14
2015,12,10,01,29,992.04
2015,12,10,01,30,991.94
2015,12,10,01,31,991.91
2015,12,10,01,32,991.81
2015,12,10,01,33,991.74
2015,12,10,01,34,991.64
2015,12,10,01,35,991.60
2015,12,10,01,36,991.57
2015,12,10,01,37,991.50
2015,12,10,01,38,991.40
2015,12,10,01,39,991.30
2015,12,10,01,40,991.26
2015,12,10,01,41,991.20
2015,12,10,01,42,991.09
2015,12,10,01,43,991.03
2015,12,10,01,44,990.99
2015,12,10,01,45,991.03
2015,12,10,01,46,990.96
2015,12,10,01,47,990.93
2015,12,10,01,48,990.86
2015,12,10,01,49,990.79
2015,12,10,01,50,990.79
2015,12,10,01,51,990.72
2015,12,10,01,52,990.76
2015,12,10,01,53,990.62
2015,12,10,01,54,990.59
2015,12,10,01,55,990.55
2015,12,10,01,56,990.52
2015,12,10,01,57,990.52
2015,12,10,01,58,990.52
2015,12,10,01,59,990.49
2015,12,10,02,00,990.49
2015,12,10,02,01,990.45
2015,12,10,02,02,990.45
2015,12,10,02,03,990.38
2015,12,10,02,04,990.38
2015,12,10,02,05,990.35
2015,12,10,02,06,990.28
2015,12,10,02,07,990.28
2015,12,10,02,08,990.18
2015,12,10,02,09,990.15
2015,12,10,02,10,990.15
2015,12,10,02,11,990.11
2015,12,10,02,12,990.11
2015,12,10,02,13,990.08
2015,12,10,02,14,990.04
2015,12,10,02,15,989.97
2015,12,10,02,16,989.84
2015,12,10,02,17,989.84
2015,12,10,02,18,989.74
2015,12,10,02,19,989.71
2015,12,10,02,20,989.64
2015,12,10,02,21,989.57
2015,12,10,02,22,989.57
2015,12,10,02,23,989.50
2015,12,10,02,24,989.50
2015,12,10,02,25,989.47
2015,12,10,02,26,989.44
2015,12,10,02,27,989.43
2015,12,10,02,28,989.33
2015,12,10,02,29,989.30
2015,12,10,02,30,989.20
2015,12,10,02,31,989.16
2015,12,10,02,32,989.20
2015,12,10,02,33,989.06
2015,12,10,02,34,989.03
2015,12,10,02,35,988.96
2015,12,10,02,36,988.96
2015,12,10,02,37,988.93
2015,12,10,02,38,988.86
2015,12,10,02,39,988.83
2015,12,10,02,40,988.79
2015,12,10,02,41,988.79
2015,12,10,02,42,988.79
2015,12,10,02,43,988.76
2015,12,10,02,44,988.72
2015,12,10,02,45,988.72
2015,12,10,02,46,988.69
2015,12,10,02,47,988.76
2015,12,10,02,48,988.76
2015,12,10,02,49,988.66
2015,12,10,02,50,988.62
2015,12,10,02,51,988.59
2015,12,10,02,52,988.52
2015,12,10,02,53,988.49
2015,12,10,02,54,988.45
2015,12,10,02,55,988.35
2015,12,10,02,56,988.28
2015,12,10,02,57,988.22
2015,12,10,02,58,988.15
2015,12,10,02,59,988.05
2015,12,10,03,00,988.05
2015,12,10,03,01,988.05
2015,12,10,03,02,988.05
2015,12,10,03,06,987.94
2015,12,10,03,07,987.87
2015,12,10,03,08,987.80
2015,12,10,03,09,987.71
2015,12,10,03,10,987.70
2015,12,10,03,11,987.64
2015,12,10,03,12,987.60
2015,12,10,03,13,987.51
2015,12,10,03,14,987.57
2015,12,10,03,15,987.51
2015,12,10,03,16,987.51
2015,12,10,03,17,987.51
2015,12,10,03,18,987.53
2015,12,10,03,19,987.48
2015,12,10,03,20,987.54
2015,12,10,03,21,987.51
2015,12,10,03,22,987.54
2015,12,10,03,23,987.57
2015,12,10,03,24,987.57
2015,12,10,03,25,987.51
2015,12,10,03,26,987.47
2015,12,10,03,27,987.44
2015,12,10,03,28,987.48
2015,12,10,03,29,987.54
2015,12,10,03,30,987.46
2015,12,10,03,31,987.34
2015,12,10,03,32,987.30
2015,12,10,03,33,987.29
2015,12,10,03,34,987.17
2015,12,10,03,35,987.16
2015,12,10,03,36,987.10
2015,12,10,03,37,987.20
2015,12,10,03,38,987.20
2015,12,10,03,39,987.16
2015,12,10,03,40,987.05
2015,12,10,03,41,987.00
2015,12,10,03,42,986.96
2015,12,10,03,43,987.01
2015,12,10,03,44,987.07
2015,12,10,03,45,987.19
2015,12,10,03,46,987.11
2015,12,10,03,47,986.96
2015,12,10,03,48,986.85
2015,12,10,03,49,986.77
2015,12,10,03,50,986.84
2015,12,10,03,51,986.92
2015,12,10,03,52,986.83
2015,12,10,03,53,986.83
2015,12,10,03,54,986.79
2015,12,10,03,55,986.84
2015,12,10,03,56,986.96
2015,12,10,03,57,986.93
2015,12,10,03,58,986.86
2015,12,10,03,59,986.82
2015,12,10,04,00,986.76
2015,12,10,04,01,986.76
2015,12,10,04,02,986.79
2015,12,10,04,03,986.76
2015,12,10,04,04,986.68
2015,12,10,04,05,986.59
2015,12,10,04,06,986.55
2015,12,10,04,07,986.42
2015,12,10,04,08,986.42
2015,12,10,04,09,986.42
2015,12,10,04,10,986.40
2015,12,10,04,11,986.46
2015,12,10,04,12,986.37
2015,12,10,04,13,986.18
2015,12,10,04,14,986.15
2015,12,10,04,15,986.18
2015,12,10,04,16,986.15
2015,12,10,04,17,986.14
2015,12,10,04,18,986.03
2015,12,10,04,19,986.11
2015,12,10,04,20,985.97
2015,12,10,04,21,985.91
2015,12,10,04,22,985.98
2015,12,10,04,23,985.98
2015,12,10,04,24,985.98
2015,12,10,04,25,985.92
2015,12,10,04,26,986.03
2015,12,10,04,27,986.14
2015,12,10,04,28,986.08
2015,12,10,04,29,986.05
2015,12,10,04,30,986.12
2015,12,10,04,31,986.12
2015,12,10,04,32,986.15
2015,12,10,04,33,986.18
2015,12,10,04,34,986.15
2015,12,10,04,35,986.17
2015,12,10,04,36,986.12
2015,12,10,04,37,986.12
2015,12,10,04,38,986.15
2015,12,10,04,39,986.12
2015,12,10,04,40,986.22
2015,12,10,04,41,986.28
2015,12,10,04,42,986.18
2015,12,10,04,43,986.27
2015,12,10,04,44,986.48
2015,12,10,04,45,986.32
2015,12,10,04,46,986.35
2015,12,10,04,47,986.39
2015,12,10,04,48,986.42
2015,12,10,04,49,986.43
2015,12,10,04,50,986.52
2015,12,10,04,51,986.46
2015,12,10,04,52,986.42
2015,12,10,04,53,986.46
2015,12,10,04,54,986.46
2015,12,10,04,55,986.50
2015,12,10,04,56,986.56
2015,12,10,04,57,986.49
2015,12,10,04,58,986.49
2015,12,10,04,59,986.49
2015,12,10,05,00,986.46
2015,12,10,05,01,986.39
2015,12,10,05,02,986.32
2015,12,10,05,03,986.34
2015,12,10,05,04,986.25
2015,12,10,05,05,986.18
2015,12,10,05,06,986.12
2015,12,10,05,07,986.08
2015,12,10,05,08,986.08
2015,12,10,05,09,986.07
2015,12,10,05,10,986.02
2015,12,10,05,11,986.08
2015,12,10,05,12,986.02
2015,12,10,05,13,986.01
2015,12,10,05,14,985.88
2015,12,10,05,15,985.85
2015,12,10,05,16,985.81
2015,12,10,05,17,985.74
2015,12,10,05,18,985.78
2015,12,10,05,19,985.74
2015,12,10,05,20,985.71
2015,12,10,05,21,985.71
2015,12,10,05,22,985.74
2015,12,10,05,23,985.74
2015,12,10,05,24,985.74
2015,12,10,05,25,985.74
2015,12,10,05,26,985.68
2015,12,10,05,27,985.68
2015,12,10,05,28,985.71
2015,12,10,05,29,985.68
2015,12,10,05,30,985.68
2015,12,10,05,31,985.71
2015,12,10,05,32,985.68
2015,12,10,05,33,985.64
2015,12,10,05,34,985.61
2015,12,10,05,35,985.61
2015,12,10,05,36,985.57
2015,12,10,05,37,985.54
2015,12,10,05,38,985.47
2015,12,10,05,39,985.47
2015,12,10,05,40,985.41
2015,12,10,05,41,985.37
2015,12,10,05,42,985.40
2015,12,10,05,43,985.34
2015,12,10,05,44,985.37
2015,12,10,05,45,985.37
2015,12,10,05,46,985.37
2015,12,10,05,47,985.34
2015,12,10,05,48,985.37
2015,12,10,05,49,985.37
2015,12,10,05,50,985.34
2015,12,10,05,51,985.34
2015,12,10,05,52,985.37
2015,12,10,05,53,985.30
2015,12,10,05,54,985.37
2015,12,10,05,55,985.37
2015,12,10,05,56,985.31
2015,12,10,05,57,985.40
2015,12,10,05,58,985.30
2015,12,10,05,59,985.26
2015,12,10,06,00,985.20
2015,12,10,06,01,985.24
2015,12,10,06,02,985.29
2015,12,10,06,03,985.20
2015,12,10,06,04,985.23
2015,12,10,06,05,985.07
2015,12,10,06,06,985.12
2015,12,10,06,07,985.07
2015,12,10,06,08,985.07
2015,12,10,06,09,985.13
2015,12,10,06,10,985.17
2015,12,10,06,11,985.10
2015,12,10,06,12,985.07
2015,12,10,06,13,985.04
2015,12,10,06,14,985.10
2015,12,10,06,15,985.03
2015,12,10,06,16,985.00
2015,12,10,06,17,984.97
2015,12,10,06,18,984.93
2015,12,10,06,19,984.96
2015,12,10,06,20,984.83
2015,12,10,06,21,984.90
2015,12,10,06,22,984.86
2015,12,10,06,23,984.86
2015,12,10,06,24,984.86
2015,12,10,06,25,984.83
2015,12,10,06,26,984.83
2015,12,10,06,27,984.83
2015,12,10,06,28,984.80
2015,12,10,06,29,984.80
2015,12,10,06,30,984.76
2015,12,10,06,31,984.83
2015,12,10,06,32,984.73
2015,12,10,06,33,984.76
2015,12,10,06,34,984.66
2015,12,10,06,35,984.68
2015,12,10,06,36,984.59
2015,12,10,06,37,984.57
2015,12,10,06,38,984.65
2015,12,10,06,39,984.49
2015,12,10,06,40,984.46
2015,12,10,06,41,984.46
2015,12,10,06,42,984.42
2015,12,10,06,43,984.39
2015,12,10,06,44,984.36
2015,12,10,06,45,984.36
2015,12,10,06,46,984.36
2015,12,10,06,47,984.29
2015,12,10,06,48,984.29
2015,12,10,06,49,984.22
2015,12,10,06,50,984.22
2015,12,10,06,51,984.31
2015,12,10,06,52,984.08
2015,12,10,06,53,984.02
2015,12,10,06,54,984.08
2015,12,10,06,55,984.05
2015,12,10,06,56,984.11
2015,12,10,06,57,984.02
2015,12,10,06,58,983.95
2015,12,10,06,59,983.95
2015,12,10,07,00,983.95
2015,12,10,07,01,983.95
2015,12,10,07,02,983.85
2015,12,10,07,03,983.81
2015,12,10,07,04,983.78
2015,12,10,07,05,983.75
2015,12,10,07,06,983.75
2015,12,10,07,07,983.75
2015,12,10,07,08,983.75
2015,12,10,07,09,983.68
2015,12,10,07,10,983.61
2015,12,10,07,11,983.67
2015,12,10,07,12,983.58
2015,12,10,07,13,983.58
2015,12,10,07,14,983.51
2015,12,10,07,15,983.57
2015,12,10,07,16,983.44
2015,12,10,07,17,983.37
2015,12,10,07,18,983.31
2015,12,10,07,19,983.27
2015,12,10,07,20,983.24
2015,12,10,07,21,983.31
2015,12,10,07,22,983.27
2015,12,10,07,23,983.27
2015,12,10,07,24,983.31
2015,12,10,07,25,983.27
2015,12,10,07,26,983.17
2015,12,10,07,27,983.20
2015,12,10,07,28,983.14
2015,12,10,07,29,983.08
2015,12,10,07,30,983.16
2015,12,10,07,31,982.97
2015,12,10,07,32,983.00
2015,12,10,07,33,982.99
2015,12,10,07,34,982.90
2015,12,10,07,35,982.87
2015,12,10,07,36,982.83
2015,12,10,07,37,982.80
2015,12,10,07,38,982.76
2015,12,10,07,39,982.73
2015,12,10,07,40,982.73
2015,12,10,07,41,982.73
2015,12,10,07,42,982.75
2015,12,10,07,43,982.63
2015,12,10,07,44,982.56
2015,12,10,07,45,982.50
2015,12,10,07,46,982.62
2015,12,10,07,47,982.39
2015,12,10,07,48,982.36
2015,12,10,07,49,982.36
2015,12,10,07,50,982.52
2015,12,10,07,51,982.39
2015,12,10,07,52,982.28
2015,12,10,07,53,982.15
2015,12,10,07,54,982.12
2015,12,10,07,55,982.12
2015,12,10,07,56,982.15
2015,12,10,07,57,982.12
2015,12,10,07,58,982.09
2015,12,10,07,59,982.02
2015,12,10,08,00,982.05
2015,12,10,08,01,982.15
2015,12,10,08,02,982.15
2015,12,10,08,03,982.12
2015,12,10,08,04,982.05
2015,12,10,08,05,982.02
2015,12,10,08,06,981.95
2015,12,10,08,07,981.92
2015,12,10,08,08,982.01
2015,12,10,08,09,981.85
2015,12,10,08,10,981.78
2015,12,10,08,11,981.77
2015,12,10,08,12,981.58
2015,12,10,08,13,981.58
2015,12,10,08,14,981.48
2015,12,10,08,15,981.51
2015,12,10,08,16,981.51
2015,12,10,08,17,981.51
2015,12,10,08,18,981.55
2015,12,10,08,19,981.55
2015,12,10,08,20,981.44
2015,12,10,08,21,981.44
2015,12,10,08,22,981.41
2015,12,10,08,23,981.44
2015,12,10,08,24,981.38
2015,12,10,08,25,981.34
2015,12,10,08,26,981.31
2015,12,10,08,27,981.24
2015,12,10,08,28,981.41
2015,12,10,08,29,981.38
2015,12,10,08,30,981.34
2015,12,10,08,31,981.34
2015,12,10,08,32,981.34
2015,12,10,08,33,981.27
2015,12,10,08,34,981.24
2015,12,10,08,35,981.30
2015,12,10,08,36,981.17
2015,12,10,08,37,981.21
2015,12,10,08,38,981.14
2015,12,10,08,39,981.17
2015,12,10,08,40,981.17
2015,12,10,08,41,981.16
2015,12,10,08,42,981.07
2015,12,10,08,43,981.10
2015,12,10,08,44,981.14
2015,12,10,08,45,981.07
2015,12,10,08,46,981.07
2015,12,10,08,47,981.04
2015,12,10,08,48,981.10
2015,12,10,08,49,981.07
2015,12,10,08,50,980.97
2015,12,10,08,51,981.10
2015,12,10,08,52,981.14
2015,12,10,08,53,981.04
2015,12,10,08,54,981.04
2015,12,10,08,55,981.00
2015,12,10,08,56,981.04
2015,12,10,08,57,981.07
2015,12,10,08,58,981.07
2015,12,10,08,59,981.04
2015,12,10,09,00,981.04
2015,12,10,09,01,981.10
2015,12,10,09,02,981.07
2015,12,10,09,03,981.10
2015,12,10,09,04,981.09
2015,12,10,09,05,981.00
2015,12,10,09,06,981.04
2015,12,10,09,07,981.04
2015,12,10,09,08,981.09
2015,12,10,09,09,981.00
2015,12,10,09,10,980.97
2015,12,10,09,11,981.03
2015,12,10,09,12,980.94
2015,12,10,09,13,981.01
2015,12,10,09,14,981.10
2015,12,10,09,15,981.10
2015,12,10,09,16,981.10
2015,12,10,09,17,981.07
2015,12,10,09,18,981.07
2015,12,10,09,19,981.04
2015,12,10,09,20,981.13
2015,12,10,09,21,981.01
2015,12,10,09,22,981.10
2015,12,10,09,23,981.08
2015,12,10,09,24,981.21
2015,12,10,09,25,981.21
2015,12,10,09,26,981.17
2015,12,10,09,27,981.14
2015,12,10,09,28,981.17
2015,12,10,09,29,981.14
2015,12,10,09,30,981.10
2015,12,10,09,31,981.10
2015,12,10,09,32,981.04
2015,12,10,09,33,981.00
2015,12,10,09,34,981.10
2015,12,10,09,35,981.04
2015,12,10,09,36,981.04
2015,12,10,09,37,980.97
2015,12,10,09,38,981.00
2015,12,10,09,39,981.00
2015,12,10,09,40,981.00
2015,12,10,09,41,980.94
2015,12,10,09,42,981.00
2015,12,10,09,43,980.97
2015,12,10,09,44,980.97
2015,12,10,09,45,980.87
2015,12,10,09,46,980.87
2015,12,10,09,47,980.93
2015,12,10,09,48,980.83
2015,12,10,09,49,980.77
2015,12,10,09,50,980.77
2015,12,10,09,51,980.70
2015,12,10,09,52,980.70
2015,12,10,09,53,980.70
2015,12,10,09,54,980.73
2015,12,10,09,55,980.66
2015,12,10,09,56,980.73
2015,12,10,09,57,980.73
2015,12,10,09,58,980.66
2015,12,10,09,59,980.60
2015,12,10,10,00,980.66
2015,12,10,10,01,980.66
2015,12,10,10,02,980.63
2015,12,10,10,03,980.60
2015,12,10,10,04,980.60
2015,12,10,10,05,980.60
2015,12,10,10,06,980.60
2015,12,10,10,07,980.63
2015,12,10,10,08,980.66
2015,12,10,10,09,980.53
2015,12,10,10,10,980.60
2015,12,10,10,11,980.56
2015,12,10,10,12,980.46
2015,12,10,10,13,980.46
2015,12,10,10,14,980.50
2015,12,10,10,15,980.53
2015,12,10,10,16,980.50
2015,12,10,10,17,980.47
2015,12,10,10,18,980.56
2015,12,10,10,19,980.60
2015,12,10,10,20,980.63
2015,12,10,10,21,980.53
2015,12,10,10,22,980.56
2015,12,10,10,23,980.53
2015,12,10,10,24,980.53
2015,12,10,10,25,980.56
2015,12,10,10,26,980.53
2015,12,10,10,27,980.60
2015,12,10,10,28,980.60
2015,12,10,10,29,980.63
2015,12,10,10,30,980.60
2015,12,10,10,31,980.63
2015,12,10,10,32,980.63
2015,12,10,10,33,980.60
2015,12,10,10,34,980.56
2015,12,10,10,35,980.53
2015,12,10,10,36,980.53
2015,12,10,10,37,980.53
2015,12,10,10,38,980.50
2015,12,10,10,39,980.56
2015,12,10,10,40,980.56
2015,12,10,10,41,980.60
2015,12,10,10,42,980.63
2015,12,10,10,43,980.70
2015,12,10,10,44,980.63
2015,12,10,10,45,980.66
2015,12,10,10,46,980.60
2015,12,10,10,47,980.66
2015,12,10,10,48,980.63
2015,12,10,10,49,980.70
2015,12,10,10,50,980.70
2015,12,10,10,51,980.66
2015,12,10,10,52,980.66
2015,12,10,10,53,980.70
2015,12,10,10,54,980.70
2015,12,10,10,55,980.63
2015,12,10,10,56,980.60
2015,12,10,10,57,980.56
2015,12,10,10,58,980.53
2015,12,10,10,59,980.50
2015,12,10,11,00,980.43
2015,12,10,11,01,980.43
2015,12,10,11,02,980.43
2015,12,10,11,03,980.43
2015,12,10,11,04,980.43
2015,12,10,11,05,980.43
2015,12,10,11,06,980.43
2015,12,10,11,07,980.43
2015,12,10,11,08,980.43
2015,12,10,11,09,980.39
2015,12,10,11,10,980.43
2015,12,10,11,11,980.36
2015,12,10,11,12,980.36
2015,12,10,11,13,980.39
2015,12,10,11,14,980.36
2015,12,10,11,15,980.39
2015,12,10,11,16,980.46
2015,12,10,11,17,980.39
2015,12,10,11,18,980.36
2015,12,10,11,19,980.33
2015,12,10,11,20,980.39
2015,12,10,11,21,980.39
2015,12,10,11,22,980.33
2015,12,10,11,23,980.33
2015,12,10,11,24,980.33
2015,12,10,11,25,980.43
2015,12,10,11,26,980.53
2015,12,10,11,27,980.44
2015,12,10,11,28,980.56
2015,12,10,11,29,980.70
2015,12,10,11,30,980.53
2015,12,10,11,31,980.56
2015,12,10,11,32,980.50
2015,12,10,11,33,980.53
2015,12,10,11,34,980.50
2015,12,10,11,35,980.50
2015,12,10,11,36,980.50
2015,12,10,11,37,980.56
2015,12,10,11,38,980.50
2015,12,10,11,39,980.46
2015,12,10,11,40,980.53
2015,12,10,11,41,980.63
2015,12,10,11,42,980.60
2015,12,10,11,43,980.60
2015,12,10,11,44,980.57
2015,12,10,11,45,980.70
2015,12,10,11,46,980.73
2015,12,10,11,47,980.73
2015,12,10,11,48,980.80
2015,12,10,11,49,980.90
2015,12,10,11,50,980.77
2015,12,10,11,51,980.73
2015,12,10,11,52,980.70
2015,12,10,11,53,980.77
2015,12,10,11,54,980.80
2015,12,10,11,55,980.87
2015,12,10,11,56,980.90
2015,12,10,11,57,980.97
2015,12,10,11,58,981.00
2015,12,10,11,59,981.04
2015,12,10,12,00,981.00
2015,12,10,12,01,980.90
2015,12,10,12,02,980.90
2015,12,10,12,03,980.80
2015,12,10,12,04,980.80
2015,12,10,12,05,980.63
2015,12,10,12,06,980.60
2015,12,10,12,07,980.70
2015,12,10,12,08,980.66
2015,12,10,12,09,980.66
2015,12,10,12,10,980.63
2015,12,10,12,11,980.66
2015,12,10,12,12,980.63
2015,12,10,12,13,980.63
2015,12,10,12,14,980.56
2015,12,10,12,15,980.53
2015,12,10,12,16,980.46
2015,12,10,12,17,980.53
2015,12,10,12,18,980.53
2015,12,10,12,19,980.56
2015,12,10,12,20,980.66
2015,12,10,12,21,980.80
2015,12,10,12,22,980.87
2015,12,10,12,23,980.91
2015,12,10,12,24,981.00
2015,12,10,12,25,981.04
2015,12,10,12,26,981.07
2015,12,10,12,27,981.07
2015,12,10,12,28,981.07
2015,12,10,12,29,981.00
2015,12,10,12,30,981.04
2015,12,10,12,31,980.97
2015,12,10,12,32,980.94
2015,12,10,12,33,980.87
2015,12,10,12,34,980.73
2015,12,10,12,35,980.69
2015,12,10,12,36,980.56
2015,12,10,12,37,980.56
2015,12,10,12,38,980.56
2015,12,10,12,39,980.63
2015,12,10,12,40,980.66
2015,12,10,12,41,980.77
2015,12,10,12,42,980.73
2015,12,10,12,43,980.77
2015,12,10,12,44,980.74
2015,12,10,12,45,980.94
2015,12,10,12,46,981.10
2015,12,10,12,47,981.14
2015,12,10,12,48,981.21
2015,12,10,12,49,981.27
2015,12,10,12,50,981.45
2015,12,10,12,51,981.55
2015,12,10,12,52,981.65
2015,12,10,12,53,981.61
2015,12,10,12,54,981.68
2015,12,10,12,55,981.65
2015,12,10,12,56,981.68
2015,12,10,12,57,981.68
2015,12,10,12,58,981.65
2015,12,10,12,59,981.65
2015,12,10,13,00,981.68
2015,12,10,13,01,981.65
2015,12,10,13,02,981.76
2015,12,10,13,03,981.85
2015,12,10,13,04,981.88
2015,12,10,13,05,981.88
2015,12,10,13,06,982.05
2015,12,10,13,07,982.09
2015,12,10,13,08,982.09
2015,12,10,13,09,982.26
2015,12,10,13,10,982.32
2015,12,10,13,11,982.36
2015,12,10,13,12,982.49
2015,12,10,13,13,982.43
2015,12,10,13,14,982.46
2015,12,10,13,15,982.36
2015,12,10,13,16,982.43
2015,12,10,13,17,982.43
2015,12,10,13,18,982.49
2015,12,10,13,19,982.53
2015,12,10,13,20,982.53
2015,12,10,13,21,982.49
2015,12,10,13,22,982.43
2015,12,10,13,23,982.36
2015,12,10,13,24,982.15
2015,12,10,13,25,982.05
2015,12,10,13,26,982.19
2015,12,10,13,27,982.06
2015,12,10,13,28,982.19
2015,12,10,13,29,982.36
2015,12,10,13,30,982.43
2015,12,10,13,31,982.53
2015,12,10,13,32,982.63
2015,12,10,13,33,982.63
2015,12,10,13,34,982.73
2015,12,10,13,35,982.80
2015,12,10,13,36,983.17
2015,12,10,13,37,983.10
2015,12,10,13,38,983.00
2015,12,10,13,39,983.17
2015,12,10,13,40,983.17
2015,12,10,13,41,983.24
2015,12,10,13,42,983.31
2015,12,10,13,43,983.11
2015,12,10,13,44,983.10
2015,12,10,13,45,983.17
2015,12,10,13,46,982.80
2015,12,10,13,47,983.27
2015,12,10,13,48,983.31
2015,12,10,13,49,983.31
2015,12,10,13,50,983.61
2015,12,10,13,51,983.68
2015,12,10,13,52,983.75
2015,12,10,13,53,983.68
2015,12,10,13,54,983.78
2015,12,10,13,55,983.64
2015,12,10,13,56,983.78
2015,12,10,13,57,983.92
2015,12,10,13,58,983.92
2015,12,10,13,59,983.95
2015,12,10,14,00,983.95
2015,12,10,14,01,984.14
2015,12,10,14,02,984.02
2015,12,10,14,03,983.98
2015,12,10,14,04,983.95
2015,12,10,14,05,984.05
2015,12,10,14,06,984.05
2015,12,10,14,07,984.02
2015,12,10,14,08,984.19
2015,12,10,14,09,984.28
2015,12,10,14,10,984.15
2015,12,10,14,11,984.02
2015,12,10,14,12,984.02
2015,12,10,14,13,983.92
2015,12,10,14,14,983.88
2015,12,10,14,15,984.02
2015,12,10,14,16,984.15
2015,12,10,14,17,983.75
2015,12,10,14,18,983.92
2015,12,10,14,19,983.95
2015,12,10,14,20,984.02
2015,12,10,14,21,983.98
2015,12,10,14,22,984.05
2015,12,10,14,23,984.02
2015,12,10,14,24,984.22
2015,12,10,14,25,984.15
2015,12,10,14,26,984.05
2015,12,10,14,27,983.95
2015,12,10,14,28,983.96
2015,12,10,14,29,984.05
2015,12,10,14,30,984.19
2015,12,10,14,31,984.14
2015,12,10,14,32,984.42
2015,12,10,14,33,984.73
2015,12,10,14,34,984.53
2015,12,10,14,35,984.83
2015,12,10,14,36,984.80
2015,12,10,14,37,984.69
2015,12,10,14,38,984.79
2015,12,10,14,39,984.69
2015,12,10,14,40,984.83
2015,12,10,14,41,984.85
2015,12,10,14,42,984.76
2015,12,10,14,43,985.20
2015,12,10,14,44,985.17
2015,12,10,14,45,985.30
2015,12,10,14,46,985.41
2015,12,10,14,47,985.41
2015,12,10,14,48,985.71
2015,12,10,14,49,985.44
2015,12,10,14,50,985.51
2015,12,10,14,51,985.48
2015,12,10,14,52,985.61
2015,12,10,14,53,985.44
2015,12,10,14,54,985.44
2015,12,10,14,55,985.51
2015,12,10,14,56,985.54
2015,12,10,14,57,985.47
2015,12,10,14,58,985.64
2015,12,10,14,59,985.78
2015,12,10,15,00,985.91
2015,12,10,15,01,986.05
2015,12,10,15,02,985.98
2015,12,10,15,03,986.05
2015,12,10,15,04,986.12
2015,12,10,15,05,986.15
2015,12,10,15,06,986.08
2015,12,10,15,07,986.18
2015,12,10,15,08,985.88
2015,12,10,15,09,985.68
2015,12,10,15,10,985.78
2015,12,10,15,11,985.81
2015,12,10,15,12,986.02
2015,12,10,15,13,985.81
2015,12,10,15,14,985.98
2015,12,10,15,15,986.05
2015,12,10,15,16,986.22
2015,12,10,15,17,986.29
2015,12,10,15,18,986.35
2015,12,10,15,19,986.22
2015,12,10,15,20,986.25
2015,12,10,15,21,986.32
2015,12,10,15,22,986.39
2015,12,10,15,23,986.29
2015,12,10,15,24,986.29
2015,12,10,15,25,986.39
2015,12,10,15,26,986.32
2015,12,10,15,27,986.32
2015,12,10,15,28,986.22
2015,12,10,15,29,986.15
2015,12,10,15,30,986.18
2015,12,10,15,31,986.18
2015,12,10,15,32,986.18
2015,12,10,15,33,986.15
2015,12,10,15,34,986.12
2015,12,10,15,35,986.18
2015,12,10,15,36,986.18
2015,12,10,15,37,986.25
2015,12,10,15,38,986.32
2015,12,10,15,39,986.46
2015,12,10,15,40,986.49
2015,12,10,15,41,986.59
2015,12,10,15,42,986.59
2015,12,10,15,43,986.62
2015,12,10,15,44,986.59
2015,12,10,15,45,986.63
2015,12,10,15,46,986.76
2015,12,10,15,47,986.76
2015,12,10,15,48,986.79
2015,12,10,15,49,986.83
2015,12,10,15,50,986.93
2015,12,10,15,51,987.03
2015,12,10,15,52,987.10
2015,12,10,15,53,987.17
2015,12,10,15,54,987.23
2015,12,10,15,55,987.27
2015,12,10,15,56,987.37
2015,12,10,15,57,987.44
2015,12,10,15,58,987.47
2015,12,10,15,59,987.54
2015,12,10,16,00,987.47
2015,12,10,16,01,987.47
2015,12,10,16,02,987.61
2015,12,10,16,03,987.61
2015,12,10,16,04,987.64
2015,12,10,16,05,987.61
2015,12,10,16,06,987.54
2015,12,10,16,07,987.54
2015,12,10,16,08,987.61
2015,12,10,16,09,987.67
2015,12,10,16,10,987.78
2015,12,10,16,11,987.84
2015,12,10,16,12,987.91
2015,12,10,16,13,987.91
2015,12,10,16,14,987.98
2015,12,10,16,15,988.15
2015,12,10,16,16,988.18
2015,12,10,16,17,988.28
2015,12,10,16,18,988.25
2015,12,10,16,19,988.32
2015,12,10,16,20,988.39
2015,12,10,16,21,988.42
2015,12,10,16,22,988.42
2015,12,10,16,23,988.49
2015,12,10,16,24,988.55
2015,12,10,16,25,988.62
2015,12,10,16,26,988.72
2015,12,10,16,27,988.83
2015,12,10,16,28,988.93
2015,12,10,16,29,989.00
2015,12,10,16,30,989.00
2015,12,10,16,31,989.13
2015,12,10,16,32,989.13
2015,12,10,16,33,989.23
2015,12,10,16,34,989.20
2015,12,10,16,35,989.16
2015,12,10,16,36,989.16
2015,12,10,16,37,989.13
2015,12,10,16,38,989.22
2015,12,10,16,39,989.20